| time (UTC) | temp F | wind direction | speed MPH | gust MPH | rain 1hr in | rain 24hr in | rain mn in | humidity % | barometer mb |
| 20260507120100 | 63 | 92 | 2.0 | 3.0 | 0.00 | 0.00 | 0.00 | 26 | 1012.9 |
| 20260507114613 | 64 | 59 | 0.0 | 2.0 | 0.00 | 0.00 | 0.00 | 26 | 1012.8 |
| 20260507113058 | 64 | 138 | 1.0 | 4.0 | 0.00 | 0.00 | 0.00 | 26 | 1012.8 |
| 20260507111603 | 65 | 140 | 0.0 | 2.0 | 0.00 | 0.00 | 0.00 | 27 | 1012.8 |
| 20260507110109 | 66 | 121 | 2.0 | 4.0 | 0.00 | 0.00 | 0.00 | 27 | 1012.9 |
| 20260507104556 | 66 | 138 | 3.0 | 5.0 | 0.00 | 0.00 | 0.00 | 27 | 1012.9 |
| 20260507103056 | 66 | 138 | 2.0 | 4.0 | 0.00 | 0.00 | 0.00 | 28 | 1012.8 |
| 20260507101604 | 66 | 130 | 3.0 | 7.0 | 0.00 | 0.00 | 0.00 | 28 | 1012.7 |
| 20260507100056 | 65 | 142 | 2.0 | 4.0 | 0.00 | 0.00 | 0.00 | 28 | 1012.7 |
| 20260507094556 | 65 | 138 | 0.0 | 3.0 | 0.00 | 0.00 | 0.00 | 27 | 1012.7 |
| 20260507093058 | 66 | 132 | 0.0 | 2.0 | 0.00 | 0.00 | 0.00 | 26 | 1012.8 |
| 20260507091558 | 67 | 125 | 0.0 | 2.0 | 0.00 | 0.00 | 0.00 | 25 | 1012.8 |
| 20260507090057 | 67 | 226 | 0.0 | 2.0 | 0.00 | 0.00 | 0.00 | 26 | 1012.8 |
| 20260507084556 | 68 | 111 | 0.0 | 2.0 | 0.00 | 0.00 | 0.00 | 26 | 1012.8 |
| 20260507083057 | 68 | 111 | 0.0 | 2.0 | 0.00 | 0.00 | 0.00 | 25 | 1012.7 |
| 20260507081603 | 69 | 111 | 0.0 | 1.0 | 0.00 | 0.00 | 0.00 | 25 | 1012.9 |
| 20260507080057 | 71 | 254 | 0.0 | 2.0 | 0.00 | 0.00 | 0.00 | 25 | 1012.8 |
| 20260507074609 | 71 | 11 | 0.0 | 6.0 | 0.00 | 0.00 | 0.00 | 25 | 1012.8 |
| 20260507073056 | 70 | 355 | 2.0 | 4.0 | 0.00 | 0.00 | 0.00 | 26 | 1012.5 |
| 20260507071559 | 71 | 103 | 1.0 | 3.0 | 0.00 | 0.00 | 0.00 | 23 | 1012.3 |
| 20260507070057 | 71 | 138 | 2.0 | 4.0 | 0.00 | 0.00 | 0.00 | 23 | 1012.3 |
| 20260507064559 | 71 | 132 | 2.0 | 6.0 | 0.00 | 0.00 | 0.00 | 24 | 1012.2 |
| 20260507063059 | 72 | 190 | 1.0 | 3.0 | 0.00 | 0.00 | 0.00 | 24 | 1012.1 |
| 20260507061606 | 73 | 246 | 1.0 | 5.0 | 0.00 | 0.00 | 0.00 | 22 | 1011.9 |
| 20260507060059 | 74 | 99 | 3.0 | 6.0 | 0.00 | 0.00 | 0.00 | 21 | 1011.8 |
| 20260507060001 | 74 | 109 | 2.0 | 4.0 | 0.00 | 0.00 | 0.00 | 21 | 1011.7 |
| 20260507054638 | 74 | 153 | 2.0 | 6.0 | 0.00 | 0.00 | 0.00 | 20 | 1011.7 |
| 20260507053100 | 75 | 152 | 3.0 | 6.0 | 0.00 | 0.00 | 0.00 | 20 | 1011.5 |
| 20260507051559 | 75 | 138 | 3.0 | 5.0 | 0.00 | 0.00 | 0.00 | 20 | 1011.4 |
| 20260507050100 | 75 | 147 | 2.0 | 4.0 | 0.00 | 0.00 | 0.00 | 20 | 1011.4 |
| 20260507044602 | 76 | 161 | 3.0 | 5.0 | 0.00 | 0.00 | 0.00 | 20 | 1011.3 |
| 20260507043057 | 76 | 153 | 3.0 | 4.0 | 0.00 | 0.00 | 0.00 | 20 | 1011.2 |
| 20260507041603 | 77 | 147 | 3.0 | 5.0 | 0.00 | 0.00 | 0.00 | 19 | 1011.2 |
| 20260507040058 | 78 | 179 | 1.0 | 4.0 | 0.00 | 0.00 | 0.00 | 19 | 1011.0 |
| 20260507034602 | 79 | 176 | 2.0 | 4.0 | 0.00 | 0.00 | 0.00 | 19 | 1010.9 |
| 20260507033104 | 79 | 140 | 2.0 | 5.0 | 0.00 | 0.00 | 0.00 | 18 | 1010.7 |
| 20260507031608 | 79 | 132 | 3.0 | 6.0 | 0.00 | 0.00 | 0.00 | 18 | 1010.5 |
| 20260507030100 | 79 | 34 | 1.0 | 3.0 | 0.00 | 0.00 | 0.00 | 18 | 1010.3 |
| 20260507024559 | 80 | 348 | 2.0 | 4.0 | 0.00 | 0.00 | 0.00 | 18 | 1010.1 |
| 20260507023106 | 80 | 13 | 1.0 | 3.0 | 0.00 | 0.00 | 0.00 | 17 | 1009.9 |
| 20260507021602 | 81 | 24 | 0.0 | 2.0 | 0.00 | 0.00 | 0.00 | 17 | 1009.8 |
| 20260507014604 | 82 | 234 | 0.0 | 4.0 | 0.00 | 0.00 | 0.00 | 17 | 1009.9 |
| 20260507013059 | 83 | 355 | 1.0 | 4.0 | 0.00 | 0.00 | 0.00 | 16 | 1009.9 |
| 20260507011557 | 85 | 281 | 1.0 | 3.0 | 0.00 | 0.00 | 0.00 | 16 | 1009.9 |
| 20260507010105 | 84 | 30 | 0.0 | 3.0 | 0.00 | 0.00 | 0.00 | 16 | 1010.0 |
| 20260507004557 | 84 | 325 | 3.0 | 8.0 | 0.00 | 0.00 | 0.00 | 16 | 1010.0 |
| 20260507003057 | 86 | 10 | 2.0 | 4.0 | 0.00 | 0.00 | 0.00 | 15 | 1010.1 |
| 20260507001604 | 87 | 22 | 1.0 | 3.0 | 0.00 | 0.00 | 0.00 | 16 | 1010.1 |
| 20260507000059 | 85 | 268 | 1.0 | 5.0 | 0.00 | 0.00 | 0.00 | 16 | 1010.1 |
| 20260506234558 | 84 | 88 | 2.0 | 8.0 | 0.00 | 0.00 | 0.00 | 17 | 1010.1 |
| 20260506233119 | 84 | 55 | 3.0 | 10.0 | 0.00 | 0.00 | 0.00 | 17 | 1010.2 |
| 20260506231558 | 86 | 350 | 1.0 | 4.0 | 0.00 | 0.00 | 0.00 | 16 | 1010.3 |
| 20260506230057 | 86 | 53 | 2.0 | 5.0 | 0.00 | 0.00 | 0.00 | 16 | 1010.5 |
| 20260506224558 | 87 | 23 | 3.0 | 8.0 | 0.00 | 0.00 | 0.00 | 16 | 1010.7 |
| 20260506223103 | 85 | 58 | 5.0 | 9.0 | 0.00 | 0.00 | 0.00 | 17 | 1010.9 |
| 20260506221559 | 85 | 287 | 1.0 | 4.0 | 0.00 | 0.00 | 0.00 | 18 | 1011.2 |
| 20260506220059 | 82 | 98 | 3.0 | 8.0 | 0.00 | 0.00 | 0.00 | 19 | 1011.4 |
| 20260506214558 | 82 | 341 | 2.0 | 9.0 | 0.00 | 0.00 | 0.00 | 19 | 1011.9 |
| 20260506213113 | 82 | 11 | 4.0 | 12.0 | 0.00 | 0.00 | 0.00 | 19 | 1011.9 |
| 20260506211558 | 83 | 52 | 8.0 | 13.0 | 0.00 | 0.00 | 0.00 | 19 | 1012.0 |
| 20260506210058 | 81 | 11 | 3.0 | 10.0 | 0.00 | 0.00 | 0.00 | 19 | 1012.3 |
| 20260506204557 | 82 | 101 | 1.0 | 10.0 | 0.00 | 0.00 | 0.00 | 19 | 1012.3 |
| 20260506203057 | 81 | 314 | 2.0 | 8.0 | 0.00 | 0.00 | 0.00 | 20 | 1012.5 |
| 20260506201557 | 82 | 62 | 3.0 | 11.0 | 0.00 | 0.00 | 0.00 | 19 | 1012.6 |
| 20260506200058 | 82 | 86 | 5.0 | 11.0 | 0.00 | 0.00 | 0.00 | 20 | 1012.7 |
| 20260506194633 | 79 | 333 | 3.0 | 9.0 | 0.00 | 0.00 | 0.00 | 22 | 1012.7 |
| 20260506193105 | 79 | 157 | 1.0 | 9.0 | 0.00 | 0.00 | 0.00 | 22 | 1012.9 |
| 20260506191557 | 80 | 117 | 1.0 | 6.0 | 0.00 | 0.00 | 0.00 | 22 | 1013.0 |
| 20260506184558 | 80 | 323 | 4.0 | 8.0 | 0.00 | 0.00 | 0.00 | 21 | 1013.2 |
| 20260506183058 | 79 | 281 | 3.0 | 7.0 | 0.00 | 0.00 | 0.00 | 22 | 1013.3 |
| 20260506181557 | 77 | 13 | 2.0 | 6.0 | 0.00 | 0.00 | 0.00 | 24 | 1013.4 |
| 20260506180105 | 76 | 22 | 2.0 | 9.0 | 0.00 | 0.00 | 0.00 | 24 | 1013.5 |
| 20260506174558 | 76 | 34 | 2.0 | 8.0 | 0.00 | 0.00 | 0.00 | 24 | 1013.4 |
| 20260506173059 | 75 | 161 | 1.0 | 8.0 | 0.00 | 0.00 | 0.00 | 25 | 1013.4 |
| 20260506171602 | 74 | 28 | 2.0 | 5.0 | 0.00 | 0.00 | 0.00 | 25 | 1013.5 |
| 20260506170109 | 73 | 5 | 2.0 | 5.0 | 0.00 | 0.00 | 0.00 | 25 | 1013.4 |
| 20260506164606 | 73 | 132 | 1.0 | 4.0 | 0.00 | 0.00 | 0.00 | 26 | 1013.3 |
| 20260506163116 | 72 | 40 | 3.0 | 5.0 | 0.00 | 0.00 | 0.00 | 26 | 1013.3 |
| 20260506161619 | 71 | 188 | 1.0 | 4.0 | 0.00 | 0.00 | 0.00 | 27 | 1013.2 |
| 20260506160057 | 70 | 290 | 2.0 | 5.0 | 0.00 | 0.00 | 0.00 | 27 | 1013.2 |
| 20260506154619 | 69 | 212 | 3.0 | 9.0 | 0.00 | 0.00 | 0.00 | 30 | 1013.1 |
| 20260506153107 | 68 | 225 | 3.0 | 9.0 | 0.00 | 0.00 | 0.00 | 32 | 1013.0 |
| 20260506151559 | 66 | 158 | 3.0 | 10.0 | 0.00 | 0.00 | 0.00 | 34 | 1012.9 |
| 20260506150101 | 66 | 202 | 4.0 | 9.0 | 0.00 | 0.00 | 0.00 | 35 | 1012.8 |
| 20260506144556 | 65 | 204 | 4.0 | 7.0 | 0.00 | 0.00 | 0.00 | 36 | 1012.7 |
| 20260506143106 | 64 | 172 | 5.0 | 10.0 | 0.00 | 0.00 | 0.00 | 37 | 1012.6 |
| 20260506141557 | 63 | 213 | 3.0 | 9.0 | 0.00 | 0.00 | 0.00 | 38 | 1012.4 |
| 20260506140059 | 62 | 181 | 4.0 | 10.0 | 0.00 | 0.00 | 0.00 | 38 | 1012.3 |
| 20260506134557 | 61 | 171 | 3.0 | 6.0 | 0.00 | 0.00 | 0.00 | 39 | 1012.0 |
| 20260506133057 | 59 | 146 | 4.0 | 8.0 | 0.00 | 0.00 | 0.00 | 41 | 1011.9 |
| 20260506131600 | 59 | 142 | 2.0 | 6.0 | 0.00 | 0.00 | 0.00 | 41 | 1011.7 |
| 20260506130100 | 59 | 188 | 2.0 | 7.0 | 0.00 | 0.00 | 0.00 | 40 | 1011.6 |
| 20260506124556 | 59 | 155 | 4.0 | 7.0 | 0.00 | 0.00 | 0.00 | 40 | 1011.4 |
| 20260506123056 | 59 | 171 | 3.0 | 7.0 | 0.00 | 0.00 | 0.00 | 40 | 1011.2 |
| 20260506121556 | 59 | 144 | 2.0 | 5.0 | 0.00 | 0.00 | 0.00 | 40 | 1011.1 |